Binghamton, NY
on Friday, December 8, 2017

Friday
       
Previous Day Next Day
Daily Summary
 ActualAverageRecord
Temperature
Mean Temperature °F °C 30°F -1°C  
Max Temperature 28°F -2°C 36°F 2°C 59°F 15°C (1966)
Min Temperature 20°F -7°C 24°F -4°C 4°F -15°C (1976)
Degree Days
Heating Degree Days 41 35  
Month to date heating degree days 246 272  
Since 1 July heating degree days 1644 1847  
Cooling Degree Days 0 0  
Month to date cooling degree days 0 0  
Year to date cooling degree days 349 381  
Moisture
Dew Point 14°F -10°C   
Average Humidity 66    
Maximum Humidity 81    
Minimum Humidity 50    
Precipitation
Precipitation T in / T cm 0.11 in / 2.79 cm 1.04 in / 2.64 cm (1974)
Month to date precipitation 0.31 0.83  
Year to date precipitation 47.20 37.30  
Snow
Snow T in / T cm 0.50 in / 1.27 cm 4.10 in / 10.41 cm (2001)
Month to date snowfall T 3.9  
Since 1 July snowfall 1.8 10.7  
Snow Depth T in / T cm   
Wind
Wind Speed 8 mph / 12 km/h   
Max Wind Speed 14 mph / 23 km/h   
Max Gust Speed 20 mph / 32 km/h   
Visibility 10 miles / 16 kilometers   
Events     

Key: T is trace of precipitation, MM is missing value
Source: NWS Daily Summary
Time(EST)TemperatureDew PointHumidity Pressure Visibility Wind DirectionWind SpeedGust SpeedPrecipitationEvents Conditions
12:53 AM 25.0°F -3.9°C 19.9°F -6.7°C 81% 29.98 in / 1015.2 hPa 10.0 miles / 16.1 kilometers WNW 6.9 mph / 11.1 km/h - N/A   Overcast
1:53 AM 24.1°F -4.4°C 19.9°F -6.7°C 84% 29.99 in / 1015.4 hPa 9.0 miles / 14.5 kilometers WSW 4.6 mph / 7.4 km/h - 0.00 in / 0.0 cm   Overcast
2:49 AM 24.8°F -4.0°C 19.4°F -7.0°C 80% 29.94 in / 1013.8 hPa 10.0 miles / 16.1 kilometers SW 4.6 mph / 7.4 km/h - 0.00 in / 0.0 cm   Overcast
2:53 AM 25.0°F -3.9°C 19.9°F -6.7°C 81% 30.00 in / 1015.9 hPa 10.0 miles / 16.1 kilometers SW 4.6 mph / 7.4 km/h - 0.00 in / 0.0 cm   Overcast
3:03 AM 25.0°F -3.9°C 19.0°F -7.2°C 78% 29.94 in / 1013.8 hPa 10.0 miles / 16.1 kilometers WSW 6.9 mph / 11.1 km/h - N/A   Overcast
3:53 AM 24.1°F -4.4°C 15.1°F -9.4°C 69% 30.00 in / 1015.8 hPa 10.0 miles / 16.1 kilometers SW 5.8 mph / 9.3 km/h - N/A   Overcast
4:53 AM 23.0°F -5.0°C 14.0°F -10.0°C 68% 30.00 in / 1015.8 hPa 10.0 miles / 16.1 kilometers SW 10.4 mph / 16.7 km/h - N/A   Partly Cloudy
5:53 AM 21.0°F -6.1°C 12.9°F -10.6°C 71% 30.01 in / 1016.1 hPa 10.0 miles / 16.1 kilometers WSW 11.5 mph / 18.5 km/h - N/A   Clear
6:53 AM 21.0°F -6.1°C 12.9°F -10.6°C 71% 30.01 in / 1016.2 hPa 10.0 miles / 16.1 kilometers West 10.4 mph / 16.7 km/h - N/A   Partly Cloudy
7:53 AM 21.0°F -6.1°C 14.0°F -10.0°C 74% 30.02 in / 1016.4 hPa 10.0 miles / 16.1 kilometers SW 6.9 mph / 11.1 km/h - N/A   Clear
8:53 AM 21.9°F -5.6°C 14.0°F -10.0°C 72% 30.03 in / 1016.8 hPa 10.0 miles / 16.1 kilometers WSW 10.4 mph / 16.7 km/h - N/A   Clear
9:53 AM 24.1°F -4.4°C 12.9°F -10.6°C 62% 30.04 in / 1017.0 hPa 10.0 miles / 16.1 kilometers WSW 9.2 mph / 14.8 km/h - N/A   Clear
10:53 AM 27.0°F -2.8°C 12.9°F -10.6°C 56% 30.02 in / 1016.4 hPa 10.0 miles / 16.1 kilometers SW 9.2 mph / 14.8 km/h - N/A   Clear
11:53 AM 28.0°F -2.2°C 12.9°F -10.6°C 53% 30.00 in / 1015.9 hPa 10.0 miles / 16.1 kilometers SW 6.9 mph / 11.1 km/h - N/A   Clear
12:53 PM 27.0°F -2.8°C 12.9°F -10.6°C 56% 29.99 in / 1015.4 hPa 10.0 miles / 16.1 kilometers South 9.2 mph / 14.8 km/h - N/A   Clear
1:53 PM 26.1°F -3.3°C 12.9°F -10.6°C 58% 29.96 in / 1014.4 hPa 10.0 miles / 16.1 kilometers SSW 9.2 mph / 14.8 km/h - N/A   Clear
2:53 PM 26.1°F -3.3°C 12.0°F -11.1°C 55% 29.97 in / 1014.7 hPa 10.0 miles / 16.1 kilometers SW 6.9 mph / 11.1 km/h - N/A   Clear
3:53 PM 25.0°F -3.9°C 12.0°F -11.1°C 58% 29.97 in / 1014.7 hPa 10.0 miles / 16.1 kilometers SSW 10.4 mph / 16.7 km/h - N/A   Clear
4:53 PM 25.0°F -3.9°C 10.9°F -11.7°C 55% 29.97 in / 1014.8 hPa 10.0 miles / 16.1 kilometers SSW 5.8 mph / 9.3 km/h - N/A   Clear
5:53 PM 24.1°F -4.4°C 10.9°F -11.7°C 57% 29.95 in / 1014.1 hPa 10.0 miles / 16.1 kilometers SSW 5.8 mph / 9.3 km/h - N/A   Unknown
6:53 PM 23.0°F -5.0°C 10.0°F -12.2°C 58% 29.99 in / 1015.3 hPa 10.0 miles / 16.1 kilometers South 5.8 mph / 9.3 km/h - N/A   Clear
7:53 PM 23.0°F -5.0°C 10.9°F -11.7°C 60% 29.97 in / 1014.9 hPa 10.0 miles / 16.1 kilometers SSW 8.1 mph / 13.0 km/h - N/A   Clear
8:53 PM 21.9°F -5.6°C 12.0°F -11.1°C 66% 29.97 in / 1014.7 hPa 10.0 miles / 16.1 kilometers SW 5.8 mph / 9.3 km/h - N/A   Clear
9:53 PM 21.9°F -5.6°C 12.0°F -11.1°C 66% 29.96 in / 1014.5 hPa 10.0 miles / 16.1 kilometers WSW 6.9 mph / 11.1 km/h - N/A   Clear
10:53 PM 21.9°F -5.6°C 10.9°F -11.7°C 63% 29.94 in / 1013.9 hPa 10.0 miles / 16.1 kilometers WSW 5.8 mph / 9.3 km/h - N/A   Clear
11:53 PM 21.9°F -5.6°C 12.0°F -11.1°C 66% 29.95 in / 1014.1 hPa 10.0 miles / 16.1 kilometers WSW 4.6 mph / 7.4 km/h - N/A   Clear